"SCET";"TARGET";"ELECTRON_DENSITY";"ERROR_FLAG";"ELECTRON_DENSITY_ERROR";"FREQ_FCE";"MEASURED_VALUE";"MEASURED_ITEM";"FREQ_PLASMA";"FREQ_UPPER_HYBRID";"FREQ_R_EQUALS_ZERO";"FREQ_L_EQUALS_ZERO";"ORBIT_NUMBER";"SATURN_RADIUS";"SATURN_IAU_LONGITUDE";"SATURN_SLS4_S_LONGITUDE";"SATURN_SLS4_N_LONGITUDE";"SATURN_SLS5_S_LONGITUDE";"SATURN_SLS5_N_LONGITUDE";"SATURN_LOCAL_TIME";"SATURN_KRONOGRAPHIC_LATITUDE";"SATURN_MAGNETIC_LATITUDE";"SATURN_L";"SATURN_L_OFFSET";"SATURN_SOLAR_EQUATORIAL_X";"SATURN_SOLAR_EQUATORIAL_Y";"SATURN_SOLAR_EQUATORIAL_Z";"SATURN_ALTITUDE";"ENCELADUS_ENCOUNTER_NUMBER";"ENCELADUS_RADIUS";"ENCELADUS_COROTATIONAL_X";"ENCELADUS_COROTATIONAL_Y";"ENCELADUS_COROTATIONAL_Z";"ENCELADUS_TRUE_ANOMALY";"ENCELADUS_PERIAPSIS_TIME";"JUPITER_RADIUS";"JUPITER_SYSTEMIII_LONGITUDE";"JUPITER_MAGNETIC_LATITUDE";"JUPITER_MAGNETIC_LOCAL_TIME";"JUPITER_L";"IO_PHASE";"EARTH_RADIUS";"EARTH_MAGNETIC_LATITUDE";"EARTH_LOCAL_TIME";"EARTH_L"
"[UTC]";"[0=Saturn, 1=Enceladus, 2=Jupiter, 3=Earth]";"[cm-3]";"[0=automated, 1=manual]";"[normalized density error]";"[Hz]";"[Hz]";"[0=upper hybrid frequency, 1=plasma frequency cutoff]";"[Hz]";"[Hz]";"[Hz]";"[Hz}";"[0, A, B, C, 3, 4, ... , 292, 293]";"[Rs where 1Rs=60268km]";"[degrees]";"[degrees]";"[degrees]";"[degrees]";"[degrees]";"[hours]";"[degrees]";"[degrees where offset=2293km north]";"[Rs where 1Rs=60268km]";"[Rs where 1Rs=60268km and offset=2293km north]";"[Rs where 1Rs=60268km]";"[Rs where 1Rs=60268km]";"[Rs where 1Rs=60268km]";"[km where ellipsoid a,b=60268km and c=54364km]";"[E0, E1, E2, ... , E21, E22]";"[Renc where 1Renc=252.1km]";"[Renc where 1Renc=252.1km]";"[Renc where 1Renc=252.1km]";"[Renc where 1Renc=252.1km]";"[degrees]";"[UTC]";"[Rj where 1Rj=71492km]";"[degrees]";"[degrees using JRM09 model]";"[hours using JRM09 model]";"[Rj where 1Rj=71492km]";"[degrees]";"[Re where 1Re=6378.1366km]";"[degrees]";"[hours]";"[Re where 1Re=6378.1366km]"
2017-08-27T01:51:19.794Z;0;3.3450e+00;1;     0.190;464413.312;  16423.646; 1;  16423.646; 464703.625; 464993.406;    580.086;290;   1.198; 208.024;;; 298.256;  40.245;  10.011;  32.941;  31.387;   1.701;   1.176;   0.872;  -0.500;   0.651;13803.930;;;;;;;;;;;;;;;;;
2017-08-27T01:51:27.793Z;0;4.6560e+00;1;     0.558;464413.312;  19377.279; 1;  19377.279; 464817.375; 465220.406;    807.099;290;   1.196; 207.975;;; 298.207;  40.194;  10.020;  32.786;  31.228;   1.692;   1.175;   0.874;  -0.498;   0.648;13696.292;;;;;;;;;;;;;;;;;
2017-08-27T01:51:35.793Z;0;5.2880e+00;1;     0.575;464413.312;  20649.861; 1;  20649.861; 464872.156; 465329.688;    916.376;290;   1.195; 207.925;;; 298.157;  40.144;  10.028;  32.632;  31.069;   1.684;   1.173;   0.875;  -0.497;   0.644;13588.912;;;;;;;;;;;;;;;;;
2017-08-27T01:51:43.793Z;0;5.8540e+00;1;     0.766;464413.312;  21727.842; 1;  21727.842; 464921.312; 465427.625;   1014.334;290;   1.193; 207.875;;; 298.108;  40.094;  10.036;  32.477;  30.909;   1.676;   1.172;   0.876;  -0.495;   0.641;13481.808;;;;;;;;;;;;;;;;;
2017-08-27T01:52:07.793Z;0;1.0250e+01;1;     0.767;467308.906;  28745.080; 1;  28745.080; 468192.156; 469070.438;   1761.526;290;   1.189; 207.728;;; 297.961;  39.944;  10.061;  32.008;  30.426;   1.653;   1.168;   0.881;  -0.490;   0.630;13162.161;;;;;;;;;;;;;;;;;
2017-08-27T01:52:15.793Z;0;1.1340e+01;1;     0.765;467308.906;  30245.654; 1;  30245.654; 468286.656; 469258.344;   1949.458;290;   1.187; 207.679;;; 297.912;  39.894;  10.070;  31.850;  30.264;   1.645;   1.166;   0.882;  -0.488;   0.626;13056.177;;;;;;;;;;;;;;;;;
2017-08-27T01:52:23.793Z;0;1.0250e+01;1;     0.574;467308.906;  28745.080; 1;  28745.080; 468192.156; 469070.438;   1761.526;290;   1.186; 207.630;;; 297.863;  39.845;  10.078;  31.693;  30.102;   1.637;   1.165;   0.884;  -0.486;   0.623;12950.479;;;;;;;;;;;;;;;;;
2017-08-27T01:52:31.793Z;0;1.1340e+01;1;     0.381;467308.906;  30245.654; 1;  30245.654; 468286.656; 469258.344;   1949.458;290;   1.184; 207.581;;; 297.814;  39.795;  10.086;  31.534;  29.939;   1.630;   1.163;   0.885;  -0.485;   0.619;12845.071;;;;;;;;;;;;;;;;;
2017-08-27T01:52:39.793Z;0;1.0780e+01;1;     0.748;467308.906;  29485.822; 1;  29485.822; 468238.219; 469162.031;   1853.120;290;   1.183; 207.532;;; 297.765;  39.746;  10.094;  31.375;  29.775;   1.622;   1.162;   0.887;  -0.483;   0.616;12739.955;;;;;;;;;;;;;;;;;
2017-08-27T01:52:55.793Z;0;9.8630e+00;1;     0.186;467308.906;  28201.762; 1;  28201.762; 468159.094; 469004.688;   1695.802;290;   1.180; 207.435;;; 297.668;  39.648;  10.111;  31.056;  29.447;   1.607;   1.159;   0.889;  -0.480;   0.608;12530.607;;;;;;;;;;;;;;;;;
2017-08-27T01:53:03.793Z;0;1.1940e+01;1;     0.185;469861.938;  31025.066; 1;  31025.066; 470885.125; 471901.656;   2039.736;290;   1.178; 207.386;;; 297.620;  39.599;  10.119;  30.896;  29.282;   1.600;   1.158;   0.891;  -0.478;   0.605;12426.382;;;;;;;;;;;;;;;;;
2017-08-27T01:53:11.793Z;0;1.2880e+01;1;     0.187;469861.938;  32232.004; 1;  32232.004; 470966.156; 472062.688;   2200.771;290;   1.177; 207.338;;; 297.572;  39.550;  10.127;  30.735;  29.116;   1.593;   1.157;   0.892;  -0.476;   0.601;12322.458;;;;;;;;;;;;;;;;;
2017-08-27T01:53:19.793Z;0;1.0250e+01;1;     0.191;469861.938;  28745.080; 1;  28745.080; 470740.375; 471613.969;   1752.025;290;   1.175; 207.290;;; 297.524;  39.501;  10.135;  30.573;  28.950;   1.585;   1.155;   0.894;  -0.474;   0.598;12218.839;;;;;;;;;;;;;;;;;
2017-08-27T01:53:27.793Z;0;1.2400e+01;1;     0.766;469861.938;  31622.777; 1;  31622.777; 470924.875; 471980.656;   2118.731;290;   1.174; 207.242;;; 297.475;  39.453;  10.144;  30.411;  28.783;   1.578;   1.154;   0.895;  -0.473;   0.594;12115.527;;;;;;;;;;;;;;;;;
2017-08-27T01:53:43.793Z;0;1.0650e+01;1;     0.187;469861.938;  29298.867; 1;  29298.867; 470774.531; 471681.844;   1819.921;290;   1.171; 207.146;;; 297.380;  39.356;  10.160;  30.085;  28.448;   1.564;   1.151;   0.898;  -0.469;   0.587;11909.837;;;;;;;;;;;;;;;;;
2017-08-27T01:53:51.793Z;0;1.1060e+01;1;     0.385;469861.938;  29863.322; 1;  29863.322; 470810.000; 471752.375;   1890.437;290;   1.169; 207.098;;; 297.332;  39.308;  10.168;  29.922;  28.280;   1.557;   1.150;   0.899;  -0.468;   0.583;11807.464;;;;;;;;;;;;;;;;;
2017-08-27T01:53:59.792Z;0;9.8630e+00;1;     0.186;469861.938;  28201.762; 1;  28201.762; 470707.531; 471548.594;   1686.654;290;   1.168; 207.050;;; 297.284;  39.260;  10.176;  29.757;  28.111;   1.550;   1.148;   0.901;  -0.466;   0.580;11705.422;;;;;;;;;;;;;;;;;
2017-08-27T01:54:07.792Z;0;1.1940e+01;1;     0.557;471898.938;  31025.066; 1;  31025.066; 472917.719; 473929.938;   2031.006;290;   1.166; 207.003;;; 297.237;  39.212;  10.185;  29.593;  27.942;   1.543;   1.147;   0.902;  -0.464;   0.576;11603.688;;;;;;;;;;;;;;;;;
2017-08-27T01:54:15.792Z;0;1.1940e+01;1;     0.371;471898.938;  31025.066; 1;  31025.066; 472917.719; 473929.938;   2031.006;290;   1.165; 206.955;;; 297.189;  39.165;  10.193;  29.428;  27.772;   1.536;   1.146;   0.903;  -0.462;   0.572;11502.278;;;;;;;;;;;;;;;;;
2017-08-27T01:54:31.792Z;0;1.1940e+01;1;     0.185;471898.938;  31025.066; 1;  31025.066; 472917.719; 473929.938;   2031.006;290;   1.162; 206.861;;; 297.094;  39.070;  10.209;  29.096;  27.431;   1.522;   1.143;   0.906;  -0.459;   0.565;11300.440;;;;;;;;;;;;;;;;;
2017-08-27T01:54:39.792Z;0;1.5010e+01;1;     0.190;471898.938;  34788.562; 1;  34788.562; 473179.500; 474449.781;   2550.837;290;   1.161; 206.813;;; 297.047;  39.022;  10.217;  28.929;  27.259;   1.515;   1.142;   0.907;  -0.457;   0.561;11200.019;;;;;;;;;;;;;;;;;
2017-08-27T01:54:47.792Z;0;1.2880e+01;1;     0.187;471898.938;  32232.004; 1;  32232.004; 472998.406; 474090.281;   2191.359;290;   1.159; 206.766;;; 297.000;  38.975;  10.225;  28.762;  27.088;   1.509;   1.140;   0.909;  -0.455;   0.558;11099.932;;;;;;;;;;;;;;;;;
2017-08-27T01:54:55.792Z;0;1.5010e+01;1;     0.190;471898.938;  34788.562; 1;  34788.562; 473179.500; 474449.781;   2550.837;290;   1.158; 206.719;;; 296.953;  38.928;  10.234;  28.594;  26.915;   1.502;   1.139;   0.910;  -0.454;   0.554;11000.183;;;;;;;;;;;;;;;;;
2017-08-27T01:55:03.792Z;0;1.2880e+01;1;     0.187;473405.562;  32232.004; 1;  32232.004; 474501.562; 475590.031;   2184.449;290;   1.157; 206.672;;; 296.906;  38.881;  10.242;  28.425;  26.742;   1.495;   1.138;   0.911;  -0.452;   0.550;10900.774;;;;;;;;;;;;;;;;;
2017-08-27T01:55:19.792Z;0;1.3380e+01;1;     0.192;473405.562;  32852.965; 1;  32852.965; 474544.156; 475674.594;   2269.024;290;   1.154; 206.579;;; 296.813;  38.788;  10.258;  28.087;  26.395;   1.482;   1.135;   0.914;  -0.448;   0.543;10702.991;;;;;;;;;;;;;;;;;
2017-08-27T01:55:27.792Z;0;1.3380e+01;1;     0.192;473405.562;  32852.965; 1;  32852.965; 474544.156; 475674.594;   2269.024;290;   1.152; 206.532;;; 296.766;  38.741;  10.266;  27.917;  26.220;   1.476;   1.134;   0.915;  -0.446;   0.539;10604.623;;;;;;;;;;;;;;;;;
2017-08-27T01:55:35.792Z;0;1.3380e+01;1;     0.192;473405.562;  32852.965; 1;  32852.965; 474544.156; 475674.594;   2269.024;290;   1.151; 206.486;;; 296.719;  38.695;  10.274;  27.747;  26.045;   1.470;   1.133;   0.916;  -0.445;   0.536;10506.606;;;;;;;;;;;;;;;;;
2017-08-27T01:55:43.792Z;0;1.6200e+01;1;     0.192;473405.562;  36141.906; 1;  36141.906; 474783.188; 476148.906;   2743.338;290;   1.150; 206.439;;; 296.673;  38.649;  10.282;  27.576;  25.870;   1.463;   1.131;   0.918;  -0.443;   0.532;10408.945;;;;;;;;;;;;;;;;;
2017-08-27T01:55:51.792Z;0;1.3380e+01;1;     0.192;473405.562;  32852.965; 1;  32852.965; 474544.156; 475674.594;   2269.024;290;   1.148; 206.393;;; 296.627;  38.602;  10.290;  27.404;  25.694;   1.457;   1.130;   0.919;  -0.441;   0.528;10311.644;;;;;;;;;;;;;;;;;
2017-08-27T01:56:07.792Z;0;1.4450e+01;1;     0.185;474399.250;  34131.012; 1;  34131.012; 475625.438; 476842.250;   2443.001;290;   1.146; 206.300;;; 296.534;  38.511;  10.307;  27.060;  25.340;   1.445;   1.128;   0.922;  -0.438;   0.521;10118.126;;;;;;;;;;;;;;;;;
2017-08-27T01:56:15.792Z;0;1.5010e+01;1;     0.190;474399.250;  34788.562; 1;  34788.562; 475673.094; 476936.781;   2537.536;290;   1.144; 206.254;;; 296.488;  38.465;  10.315;  26.887;  25.163;   1.438;   1.126;   0.923;  -0.436;   0.517;10021.916;;;;;;;;;;;;;;;;;
2017-08-27T01:56:23.792Z;0;1.8160e+01;1;     0.190;474399.250;  38271.273; 1;  38271.273; 475940.469; 477466.875;   3067.627;290;   1.143; 206.208;;; 296.442;  38.419;  10.323;  26.713;  24.985;   1.432;   1.125;   0.924;  -0.434;   0.514; 9926.077;;;;;;;;;;;;;;;;;
2017-08-27T01:56:31.791Z;0;1.6830e+01;1;     0.188;474399.250;  36838.195; 1;  36838.195; 475827.375; 477242.781;   2843.527;290;   1.142; 206.162;;; 296.396;  38.374;  10.331;  26.539;  24.806;   1.426;   1.124;   0.925;  -0.432;   0.510; 9830.624;;;;;;;;;;;;;;;;;
2017-08-27T01:56:39.791Z;0;1.7480e+01;1;     0.185;474399.250;  37547.898; 1;  37547.898; 475882.844; 477352.719;   2953.465;290;   1.140; 206.117;;; 296.351;  38.328;  10.339;  26.365;  24.627;   1.420;   1.123;   0.927;  -0.430;   0.506; 9735.535;;;;;;;;;;;;;;;;;
2017-08-27T01:56:55.791Z;0;2.5610e+01;1;     0.184;474399.250;  45442.117; 1;  45442.117; 476570.688; 478712.875;   4313.621;290;   1.138; 206.025;;; 296.259;  38.238;  10.355;  26.014;  24.267;   1.409;   1.120;   0.929;  -0.427;   0.499; 9546.499;;;;;;;;;;;;;;;;;
2017-08-27T01:57:03.791Z;0;1.8870e+01;1;     0.186;474905.250;  39008.586; 1;  39008.586; 476504.656; 478088.094;   3182.823;290;   1.136; 205.980;;; 296.214;  38.193;  10.363;  25.838;  24.087;   1.403;   1.119;   0.930;  -0.425;   0.495; 9452.559;;;;;;;;;;;;;;;;;
2017-08-27T01:57:11.791Z;0;1.8870e+01;1;     0.186;474905.250;  39008.586; 1;  39008.586; 476504.656; 478088.094;   3182.823;290;   1.135; 205.934;;; 296.169;  38.148;  10.371;  25.661;  23.906;   1.397;   1.118;   0.931;  -0.423;   0.491; 9359.007;;;;;;;;;;;;;;;;;
2017-08-27T01:57:19.791Z;0;2.2840e+01;1;     0.186;474905.250;  42913.773; 1;  42913.773; 476840.219; 478751.906;   3846.652;290;   1.134; 205.889;;; 296.123;  38.104;  10.379;  25.484;  23.724;   1.391;   1.117;   0.933;  -0.421;   0.488; 9265.848;;;;;;;;;;;;;;;;;
2017-08-27T01:57:27.791Z;0;2.1160e+01;1;     0.184;474905.250;  41306.852; 1;  41306.852; 476698.312; 478471.312;   3566.057;290;   1.132; 205.843;;; 296.078;  38.059;  10.387;  25.307;  23.542;   1.386;   1.116;   0.934;  -0.420;   0.484; 9173.084;;;;;;;;;;;;;;;;;
2017-08-27T01:57:43.791Z;0;2.8710e+01;1;     0.191;474905.250;  48119.426; 1;  48119.426; 477336.875; 479731.875;   4826.611;290;   1.130; 205.753;;; 295.988;  37.971;  10.403;  24.950;  23.176;   1.374;   1.113;   0.936;  -0.416;   0.476; 8988.755;;;;;;;;;;;;;;;;;
2017-08-27T01:57:51.791Z;0;2.6600e+01;1;     0.189;474905.250;  46317.578; 1;  46317.578; 477158.594; 479380.469;   4475.189;290;   1.129; 205.708;;; 295.943;  37.926;  10.411;  24.771;  22.993;   1.369;   1.112;   0.937;  -0.414;   0.473; 8897.196;;;;;;;;;;;;;;;;;
2017-08-27T01:57:59.791Z;0;2.2840e+01;1;     0.186;474905.250;  42913.773; 1;  42913.773; 476840.219; 478751.906;   3846.652;290;   1.127; 205.663;;; 295.898;  37.882;  10.419;  24.591;  22.808;   1.363;   1.111;   0.939;  -0.412;   0.469; 8806.045;;;;;;;;;;;;;;;;;
2017-08-27T01:58:07.791Z;0;2.9830e+01;1;     0.187;474953.781;  49046.469; 1;  49046.469; 477479.469; 479965.719;   5011.933;290;   1.126; 205.618;;; 295.854;  37.838;  10.427;  24.411;  22.624;   1.358;   1.110;   0.940;  -0.410;   0.465; 8715.307;;;;;;;;;;;;;;;;;
2017-08-27T01:58:15.791Z;0;2.4650e+01;1;     0.188;474953.781;  44583.203; 1;  44583.203; 477041.656; 479102.500;   4148.720;290;   1.125; 205.573;;; 295.809;  37.795;  10.435;  24.230;  22.439;   1.353;   1.109;   0.941;  -0.409;   0.462; 8624.981;;;;;;;;;;;;;;;;;
2017-08-27T01:58:31.791Z;0;2.9830e+01;1;     0.187;474953.781;  49046.469; 1;  49046.469; 477479.469; 479965.719;   5011.933;290;   1.122; 205.484;;; 295.720;  37.708;  10.451;  23.867;  22.067;   1.342;   1.106;   0.943;  -0.405;   0.454; 8445.590;;;;;;;;;;;;;;;;;
2017-08-27T01:58:39.791Z;0;2.8710e+01;1;     0.191;474953.781;  48119.426; 1;  48119.426; 477385.125; 479779.906;   4826.128;290;   1.121; 205.439;;; 295.676;  37.664;  10.459;  23.685;  21.881;   1.337;   1.105;   0.944;  -0.403;   0.450; 8356.529;;;;;;;;;;;;;;;;;
2017-08-27T01:58:47.791Z;0;2.5610e+01;1;     0.184;474953.781;  45442.117; 1;  45442.117; 477122.688; 479262.438;   4308.675;290;   1.120; 205.394;;; 295.632;  37.621;  10.467;  23.502;  21.694;   1.332;   1.104;   0.945;  -0.401;   0.446; 8267.896;;;;;;;;;;;;;;;;;
2017-08-27T01:58:55.791Z;0;2.1160e+01;1;     0.184;474953.781;  41306.852; 1;  41306.852; 476746.625; 478519.469;   3565.698;290;   1.119; 205.350;;; 295.588;  37.578;  10.475;  23.319;  21.506;   1.327;   1.103;   0.947;  -0.399;   0.443; 8179.695;;;;;;;;;;;;;;;;;
2017-08-27T01:59:03.791Z;0;2.3730e+01;1;     0.191;474577.750;  43740.523; 1;  43740.523; 476589.188; 478575.500;   3997.767;290;   1.117; 205.305;;; 295.543;  37.535;  10.483;  23.136;  21.318;   1.321;   1.102;   0.948;  -0.397;   0.439; 8091.928;;;;;;;;;;;;;;;;;
2017-08-27T01:59:19.790Z;0;3.0990e+01;1;     0.184;474577.750;  49991.367; 1;  49991.367; 477203.500; 479786.594;   5208.851;290;   1.115; 205.217;;; 295.456;  37.449;  10.499;  22.767;  20.941;   1.311;   1.100;   0.950;  -0.394;   0.431; 7917.722;;;;;;;;;;;;;;;;;
2017-08-27T01:59:27.790Z;0;4.3690e+01;1;     0.187;474577.750;  59358.191; 1;  59358.191; 478275.469; 481889.375;   7311.626;290;   1.114; 205.173;;; 295.412;  37.407;  10.507;  22.582;  20.751;   1.306;   1.099;   0.951;  -0.392;   0.428; 7831.278;;;;;;;;;;;;;;;;;
2017-08-27T01:59:35.790Z;0;4.2060e+01;1;     0.191;474577.750;  58236.246; 1;  58236.246; 478137.531; 481619.531;   7041.783;290;   1.113; 205.128;;; 295.368;  37.365;  10.515;  22.396;  20.562;   1.302;   1.098;   0.952;  -0.390;   0.424; 7745.283;;;;;;;;;;;;;;;;;
2017-08-27T01:59:43.790Z;0;4.0480e+01;1;     0.185;474577.750;  57135.508; 1;  57135.508; 478004.719; 481359.500;   6781.763;290;   1.111; 205.084;;; 295.325;  37.322;  10.523;  22.210;  20.371;   1.297;   1.097;   0.953;  -0.388;   0.420; 7659.739;;;;;;;;;;;;;;;;;
2017-08-27T01:59:51.790Z;0;3.7510e+01;1;     0.184;474577.750;  54996.051; 1;  54996.051; 477753.688; 480867.562;   6289.810;290;   1.110; 205.040;;; 295.281;  37.280;  10.531;  22.023;  20.180;   1.292;   1.096;   0.954;  -0.386;   0.416; 7574.650;;;;;;;;;;;;;;;;;
2017-08-27T02:00:07.790Z;0;4.2600e+01;1;     0.189;473824.969;  58607.852; 1;  58607.852; 477435.844; 480966.594;   7141.619;290;   1.108; 204.952;;; 295.193;  37.193;  10.547;  21.649;  19.797;   1.283;   1.093;   0.956;  -0.382;   0.409; 7405.851;;;;;;;;;;;;;;;;;
2017-08-27T02:00:15.790Z;0;2.4960e+01;1;     0.187;473824.969;  44867.688; 1;  44867.688; 475944.531; 478036.188;   4211.207;290;   1.107; 204.909;;; 295.149;  37.149;  10.554;  21.460;  19.605;   1.278;   1.092;   0.957;  -0.381;   0.405; 7322.147;;;;;;;;;;;;;;;;;
2017-08-27T02:00:23.790Z;0;2.3130e+01;1;     0.185;473824.969;  43187.605; 1;  43187.605; 475789.094; 477729.219;   3904.240;290;   1.106; 204.865;;; 295.104;  37.104;  10.562;  21.272;  19.412;   1.273;   1.091;   0.958;  -0.379;   0.401; 7238.912;;;;;;;;;;;;;;;;;
2017-08-27T02:00:31.790Z;0;3.3880e+01;1;     0.184;473824.969;  52267.539; 1;  52267.539; 476699.062; 479522.094;   5697.122;290;   1.105; 204.821;;; 295.060;  37.060;  10.570;  21.083;  19.219;   1.269;   1.090;   0.959;  -0.377;   0.397; 7156.148;;;;;;;;;;;;;;;;;
2017-08-27T02:00:39.790Z;0;2.0890e+01;1;     0.372;473824.969;  41044.945; 1;  41044.945; 475599.406; 477354.188;   3529.219;290;   1.103; 204.777;;; 295.015;  37.015;  10.578;  20.893;  19.026;   1.264;   1.089;   0.960;  -0.375;   0.393; 7073.861;;;;;;;;;;;;;;;;;
2017-08-27T02:00:55.790Z;0;1.6200e+01;1;     0.192;473824.969;  36141.906; 1;  36141.906; 475201.375; 476565.906;   2740.938;290;   1.101; 204.690;;; 294.927;  36.927;  10.594;  20.513;  18.637;   1.255;   1.087;   0.962;  -0.371;   0.386; 6910.727;;;;;;;;;;;;;;;;;
2017-08-27T02:01:03.790Z;0;1.6830e+01;1;     0.377;472763.531;  36838.195; 1;  36838.195; 474196.594; 475616.781;   2853.248;290;   1.100; 204.647;;; 294.883;  36.883;  10.602;  20.322;  18.442;   1.251;   1.086;   0.963;  -0.369;   0.382; 6829.886;;;;;;;;;;;;;;;;;
2017-08-27T02:01:11.790Z;0;2.2840e+01;1;     0.186;472763.531;  42913.773; 1;  42913.773; 474707.219; 476627.344;   3863.798;290;   1.099; 204.603;;; 294.838;  36.838;  10.610;  20.131;  18.247;   1.247;   1.085;   0.964;  -0.367;   0.378; 6749.536;;;;;;;;;;;;;;;;;
2017-08-27T02:01:19.790Z;0;1.9600e+01;1;     0.192;472763.531;  39760.105; 1;  39760.105; 474432.531; 476084.094;   3320.560;290;   1.098; 204.560;;; 294.794;  36.794;  10.618;  19.939;  18.051;   1.242;   1.084;   0.965;  -0.365;   0.374; 6669.678;;;;;;;;;;;;;;;;;
2017-08-27T02:01:27.790Z;0;1.6830e+01;1;     0.188;472763.531;  36838.195; 1;  36838.195; 474196.594; 475616.781;   2853.248;290;   1.097; 204.517;;; 294.750;  36.750;  10.626;  19.746;  17.855;   1.238;   1.083;   0.966;  -0.363;   0.370; 6590.317;;;;;;;;;;;;;;;;;
2017-08-27T02:01:43.789Z;0;1.9600e+01;1;     0.192;472763.531;  39760.105; 1;  39760.105; 474432.531; 476084.094;   3320.560;290;   1.095; 204.430;;; 294.662;  36.662;  10.641;  19.360;  17.461;   1.230;   1.082;   0.968;  -0.360;   0.363; 6433.109;;;;;;;;;;;;;;;;;
2017-08-27T02:01:51.789Z;0;2.0370e+01;1;     0.188;472763.531;  40526.102; 1;  40526.102; 474497.344; 476212.344;   3448.808;290;   1.094; 204.387;;; 294.618;  36.618;  10.649;  19.167;  17.263;   1.226;   1.081;   0.969;  -0.358;   0.359; 6355.260;;;;;;;;;;;;;;;;;
2017-08-27T02:01:59.789Z;0;1.8160e+01;1;     0.190;472763.531;  38271.273; 1;  38271.273; 474310.094; 475841.656;   3078.105;290;   1.093; 204.344;;; 294.575;  36.575;  10.657;  18.972;  17.065;   1.222;   1.080;   0.970;  -0.356;   0.355; 6277.920;;;;;;;;;;;;;;;;;
2017-08-27T02:02:07.789Z;0;1.9600e+01;1;     0.192;471448.031;  39760.105; 1;  39760.105; 473121.656; 474777.719;   3329.697;290;   1.091; 204.301;;; 294.531;  36.531;  10.665;  18.778;  16.866;   1.218;   1.079;   0.971;  -0.354;   0.351; 6201.095;;;;;;;;;;;;;;;;;
2017-08-27T02:02:15.789Z;0;2.4650e+01;1;     0.188;471448.031;  44583.203; 1;  44583.203; 473551.375; 475627.062;   4179.035;290;   1.090; 204.258;;; 294.487;  36.487;  10.673;  18.583;  16.668;   1.214;   1.078;   0.972;  -0.352;   0.347; 6124.788;;;;;;;;;;;;;;;;;
2017-08-27T02:02:31.789Z;0;2.2840e+01;1;     0.186;471448.031;  42913.773; 1;  42913.773; 473397.125; 475322.438;   3874.406;290;   1.088; 204.172;;; 294.400;  36.400;  10.689;  18.191;  16.268;   1.206;   1.076;   0.974;  -0.348;   0.340; 5973.742;;;;;;;;;;;;;;;;;
2017-08-27T02:02:39.789Z;0;2.4650e+01;1;     0.376;471448.031;  44583.203; 1;  44583.203; 473551.375; 475627.062;   4179.035;290;   1.087; 204.129;;; 294.356;  36.356;  10.697;  17.995;  16.068;   1.202;   1.075;   0.975;  -0.346;   0.336; 5899.009;;;;;;;;;;;;;;;;;
2017-08-27T02:02:47.789Z;0;2.4650e+01;1;     0.188;471448.031;  44583.203; 1;  44583.203; 473551.375; 475627.062;   4179.035;290;   1.086; 204.086;;; 294.313;  36.313;  10.704;  17.798;  15.868;   1.198;   1.074;   0.975;  -0.344;   0.332; 5824.809;;;;;;;;;;;;;;;;;
2017-08-27T02:02:55.789Z;0;2.8710e+01;1;     0.191;471448.031;  48119.426; 1;  48119.426; 473897.375; 476309.312;   4861.293;290;   1.085; 204.043;;; 294.269;  36.269;  10.712;  17.600;  15.667;   1.195;   1.073;   0.976;  -0.342;   0.328; 5751.145;;;;;;;;;;;;;;;;;
2017-08-27T02:03:03.789Z;0;2.5610e+01;1;     0.369;469956.312;  45442.117; 1;  45442.117; 472148.219; 474309.969;   4353.664;290;   1.084; 204.000;;; 294.226;  36.226;  10.720;  17.403;  15.465;   1.191;   1.072;   0.977;  -0.340;   0.324; 5678.020;;;;;;;;;;;;;;;;;
2017-08-27T02:03:19.789Z;0;2.5610e+01;1;     0.369;469956.312;  45442.117; 1;  45442.117; 472148.219; 474309.969;   4353.664;290;   1.082; 203.915;;; 294.140;  36.140;  10.736;  17.006;  15.061;   1.184;   1.071;   0.979;  -0.336;   0.316; 5533.401;;;;;;;;;;;;;;;;;
2017-08-27T02:03:27.789Z;0;3.4750e+01;1;     0.191;469956.312;  52936.703; 1;  52936.703; 472928.375; 475845.406;   5889.086;290;   1.081; 203.872;;; 294.096;  36.096;  10.744;  16.807;  14.858;   1.180;   1.070;   0.980;  -0.334;   0.313; 5461.915;;;;;;;;;;;;;;;;;
2017-08-27T02:03:35.789Z;0;2.9830e+01;1;     0.187;469956.312;  49046.469; 1;  49046.469; 472508.719; 475020.438;   5064.111;290;   1.080; 203.830;;; 294.053;  36.053;  10.752;  16.607;  14.655;   1.176;   1.069;   0.981;  -0.332;   0.309; 5390.982;;;;;;;;;;;;;;;;;
2017-08-27T02:03:43.789Z;0;2.7640e+01;1;     0.372;469956.312;  47209.906; 1;  47209.906; 472321.625; 474651.906;   4695.599;290;   1.079; 203.787;;; 294.010;  36.010;  10.759;  16.407;  14.452;   1.173;   1.068;   0.981;  -0.330;   0.305; 5320.606;;;;;;;;;;;;;;;;;
2017-08-27T02:03:51.789Z;0;3.8970e+01;1;     0.189;469956.312;  56055.570; 1;  56055.570; 473287.625; 476550.031;   6593.698;290;   1.078; 203.745;;; 293.967;  35.967;  10.767;  16.207;  14.248;   1.170;   1.067;   0.982;  -0.328;   0.301; 5250.791;;;;;;;;;;;;;;;;;
2017-08-27T02:04:07.789Z;0;3.4750e+01;1;     0.191;468364.188;  52936.703; 1;  52936.703; 471346.281; 474272.812;   5908.613;290;   1.077; 203.660;;; 293.881;  35.881;  10.783;  15.805;  13.839;   1.163;   1.066;   0.984;  -0.324;   0.293; 5112.857;;;;;;;;;;;;;;;;;
2017-08-27T02:04:15.788Z;0;4.0480e+01;1;     0.185;468364.188;  57135.508; 1;  57135.508; 471836.312; 475233.375;   6869.186;290;   1.076; 203.617;;; 293.839;  35.839;  10.791;  15.603;  13.634;   1.160;   1.065;   0.985;  -0.322;   0.289; 5044.753;;;;;;;;;;;;;;;;;
2017-08-27T02:04:23.788Z;0;3.8970e+01;1;     0.189;468364.188;  56055.570; 1;  56055.570; 471706.750; 474979.688;   6615.498;290;   1.075; 203.575;;; 293.796;  35.796;  10.799;  15.401;  13.428;   1.156;   1.064;   0.985;  -0.321;   0.285; 4977.216;;;;;;;;;;;;;;;;;